www.pogodaiklimat.ru

Погода и климат >> Архив погоды >> Испания >> Барденас-Реалес


ПОГОДА в Барденас-Реалесе

  • Прогноз погоды в Барденас-Реалесе
  • Монитор погоды в Барденас-Реалесе

АРХИВ ПОГОДЫ в Барденас-Реалесе

Время (UTC), дата Ветер
(напр.,м/с)
 
Видим.   Явления Облачность Т
(С)
Тd
(С)
f
(%)
Тe
(С)
Тes
(С)
Комфортность P
(гПа)
Po
(гПа)
Тmin
(С)
Tmax
(С)
R
(мм)
R24
(мм)
S
(см)
01 10.06 СЗ 5-6
{6}
20 км н/о +13.7 +8.8 72 +12 +12 1018.2 983.3
02 10.06 СЗ 4-7
{7}
20 км н/о +13.3 +8.5 73 +12 +12 1017.7 982.8
04 10.06 СЗ 5-7
{7}
20 км н/о +12.7 +8.0 73 +11 +11 1016.9 981.9
05 10.06 СЗ 4-6
{7}
20 км н/о +12.9 +7.6 70 +11 +11 1017.4 982.4
06 10.06 СЗ 5 20 км н/о +13.7 +7.3 65 +12 +12 1017.2 982.3 +12.5 +20.4
07 10.06 СЗ 5-7
{8}
20 км н/о +14.8 +7.3 61 +13 +13 1017.3 982.6
08 10.06 СЗ 5-7
{7}
20 км н/о +14.9 +7.1 60 +14 +14 1017.5 982.8
10 10.06 СЗ 5-7
{8}
20 км н/о +16.2 +7.1 55 +15 +15 1017.2 982.6
11 10.06 СЗ 5-7
{7}
20 км н/о +17.8 +6.7 48 +17 +17 1016.8 982.4
12 10.06 СЗ 5-6
{8}
20 км н/о +18.6 +6.1 44 +19 +19 1016.2 981.9
13 10.06 СЗ 5-7
{7}
20 км н/о +19.4 +6.1 42 +20 +20 1015.6 981.4
14 10.06 СЗ 5-7
{8}
20 км н/о +19.6 +5.9 41 +20 +20 1014.8 980.7
16 10.06 СЗ 5-7
{8}
20 км н/о +19.1 +4.5 38 +19 +19 1014.0 979.8
17 10.06 СЗ 5-7
{7}
20 км н/о +17.8 +4.3 41 +17 +17 1013.7 979.4
18 10.06 СЗ 5-8
{8}
20 км н/о +16.7 +4.3 44 +16 +16 1014.2 979.8 +19.8
19 10.06 СЗ 5-7
{7}
20 км н/о +16.0 +3.4 43 +15 +15 1014.4 979.9
20 10.06 СЗ 4-5
{6}
20 км н/о +15.2 +3.9 47 +14 +14 1014.6 980.0
22 10.06 СЗ 4-5
{6}
20 км н/о +13.4 +5.3 58 +12 +12 1015.4 980.5
23 10.06 СЗ 3-4
{5}
20 км н/о +13.1 +5.5 60 +12 +12 1014.9 980.0
00 11.06 СЗ 3-4
{4}
20 км н/о +12.7 +4.5 57 +12 +12 1015.1 980.2
01 11.06 СЗ 3-4
{5}
20 км н/о +12.5 +5.5 62 +11 +11 1015.0 980.0
02 11.06 СЗ 3-4
{5}
20 км слаб. дождь н/о +11.6 +6.2 69 +10 +10 1015.0 979.9
04 11.06 СЗ 3-4
{5}
20 км слаб. ливневой дождь н/о +10.0 +8.0 87 +8 +8 1014.6 979.4 0.2
05 11.06 СЗ 3-4
{5}
20 км слаб. ливневой дождь н/о +10.3 +8.1 86 +8 +8 1014.4 979.2
06 11.06 СЗ 2 20 км слаб. ливневой дождь н/о +10.4 +8.7 89 +9 +9 1014.6 979.4 +10.0 +16.6 0.6
07 11.06 З 2-3
{3}
20 км слаб. ливневой дождь н/о +11.0 +9.0 87 +10 +10 1014.5 979.4 0.2
08 11.06 СЗ 3-4
{4}
20 км н/о +12.2 +8.7 79 +11 +11 1014.8 979.8
10 11.06 СЗ 4-6
{6}
20 км н/о +15.1 +5.3 52 +14 +14 1014.2 979.6
11 11.06 З 4-5
{5}
20 км н/о +15.7 +5.3 50 +15 +15 1014.0 979.5
12 11.06 СЗ 4-6
{7}
20 км в посл. час дождь {ливн. осадки} н/о +16.4 +5.0 47 +16 +16 1014.0 979.5 0.2
13 11.06 СЗ 6-8
{8}
20 км н/о +17.2 +4.8 44 +16 +16 1013.8 979.4
14 11.06 СЗ 5-7
{8}
20 км н/о +17.9 +4.1 40 +18 +18 1013.7 979.4
16 11.06 СЗ 4-6
{7}
20 км н/о +17.9 +4.5 41 +18 +18 1013.7 979.4
17 11.06 СЗ 5-7
{9}
20 км н/о +16.2 +4.3 45 +15 +15 1014.2 979.7
18 11.06 СЗ 4-6
{7}
20 км н/о +15.9 +4.6 47 +15 +15 1014.5 980.0 +18.2
19 11.06 СЗ 4-5
{6}
20 км н/о +15.0 +5.1 52 +14 +14 1015.2 980.5
20 11.06 СЗ 2-3
{5}
20 км н/о +13.2 +5.6 60 +13 +13 1015.7 980.8
22 11.06 штиль 0-1
{2}
20 км н/о +10.6 +5.1 69 +10 +10 1016.5 981.3
23 11.06 СЗ 2-2
{2}
20 км н/о +9.7 +5.6 76 +9 +9 1016.3 981.0
00 12.06 Ю 1-1
{2}
20 км н/о +8.4 +4.6 77 +9 +9 1016.2 980.7
01 12.06 С 1-1
{2}
20 км н/о +7.9 +4.8 81 +8 +8 1016.1 980.5
02 12.06 Ю 1-1
{1}
20 км н/о +6.9 +3.6 79 +6 +6 1016.0 980.3
04 12.06 СВ 1-1
{1}
20 км н/о +6.1 +3.6 84 +6 +6 1016.0 980.2
05 12.06 ЮВ 1-1
{1}
20 км н/о +6.1 +3.2 82 +6 +6 1016.3 980.5
06 12.06 С 1 20 км н/о +8.6 +5.0 78 +9 +9 1016.0 980.5 +5.9 +15.8
07 12.06 СВ 1-1
{1}
20 км н/о +12.4 +5.8 64 +13 +13 1015.7 980.7
08 12.06 ЮЗ 1-2
{2}
20 км н/о +14.1 +4.6 53 +15 +15 1015.7 980.9
10 12.06 ЮВ 1-2
{3}
20 км н/о +17.2 +3.0 39 +18 +18 1014.9 980.5
11 12.06 ЮВ 1-3
{4}
20 км н/о +18.9 +3.0 35 +20 +20 1014.0 979.8
12 12.06 ЮВ 2 20 км н/о +19.9 +2.7 32 +21 +21 комфорт 1013.2 979.2
13 12.06 В 2-3
{4}
20 км н/о +20.2 +2.5 31 +21 +21 комфорт 1012.5 978.5
14 12.06 В 1-3
{4}
20 км н/о +22.1 +2.7 28 +22 +22 комфорт 1011.3 977.6
16 12.06 В 2-4
{4}
20 км н/о +22.7 +1.7 25 +22 +22 комфорт 1010.2 976.6
17 12.06 СВ 2-3
{4}
20 км н/о +22.9 +1.9 25 +22 +22 комфорт 1009.6 976.0
18 12.06 В 2-3
{4}
20 км н/о +22.9 +1.3 24 +22 +22 комфорт 1009.4 975.8 +23.6
19 12.06 В 2-3
{3}
20 км н/о +22.0 +2.1 27 +22 +22 комфорт 1009.6 975.9
20 12.06 В 2-3
{3}
20 км н/о +19.1 +3.2 35 +20 +20 1010.2 976.2
22 12.06 В 2-3
{3}
20 км н/о +17.0 +3.6 41 +17 +17 1011.4 977.1
23 12.06 ЮВ 1-2
{3}
20 км н/о +15.7 +5.3 50 +16 +16 1011.9 977.4
00 13.06 ЮЗ 1-1
{2}
20 км н/о +13.4 +7.0 65 +15 +15 1012.1 977.4
01 13.06 СВ 1-1
{1}
20 км н/о +11.9 +6.4 69 +13 +13 1012.0 977.1
02 13.06 ЮВ 2-4
{4}
20 км н/о +13.7 +5.3 57 +13 +13 1011.3 976.6
04 13.06 ЮВ 3-4
{5}
20 км н/о +13.5 +4.6 55 +12 +12 1011.5 976.8
05 13.06 ЮВ 2-3
{4}
20 км н/о +13.3 +5.0 57 +13 +13 1012.0 977.2
06 13.06 В 1 20 км н/о +14.9 +5.1 52 +16 +16 1012.2 977.6 +11.9 +23.1
07 13.06 В 3-4
{4}
20 км н/о +15.8 +4.8 48 +16 +16 1012.3 977.8
08 13.06 В 4-6
{6}
20 км н/о +17.8 +5.8 45 +18 +18 1011.7 977.5
10 13.06 В 5-7
{7}
20 км н/о +21.7 +8.3 42 +23 +23 комфорт 1010.5 976.8
11 13.06 В 5 20 км н/о +22.6 +9.0 42 +24 +24 комфорт 1009.6 976.0
12 13.06 В 5-7
{7}
20 км н/о +25.1 +8.9 36 +26 +26 жарко 1008.6 975.3
13 13.06 В 5-7
{8}
20 км н/о +26.5 +9.3 34 +27 +27 жарко 1007.1 974.0
14 13.06 В 6-9
{9}
20 км н/о +26.8 +9.7 34 +27 +27 жарко 1006.4 973.4
16 13.06 В 6-8
{8}
20 км н/о +26.7 +9.0 33 +27 +27 жарко 1005.4 972.4
17 13.06 В 6-8
{8}
20 км н/о +27.1 +8.5 31 +27 +27 жарко 1004.9 972.0
18 13.06 В 5-7
{7}
20 км н/о +26.1 +8.5 33 +26 +26 жарко 1005.4 972.3 +28.1
19 13.06 В 5-7
{8}
17 км н/о +24.7 +9.0 37 +25 +25 комфорт 1006.3 973.1
20 13.06 В 4-5
{7}
20 км н/о +22.3 +6.5 36 +23 +23 комфорт 1007.6 974.0
22 13.06 ЮВ 3-3
{4}
20 км н/о +19.4 +6.5 43 +20 +20 1009.6 975.6
23 13.06 В 2-4
{4}
20 км н/о +19.5 +4.5 37 +21 +21 комфорт 1010.5 976.5
00 14.06 В 3-3
{3}
20 км н/о +18.3 +3.8 38 +19 +19 1010.6 976.5
01 14.06 З 2-2
{3}
20 км н/о +16.5 +9.7 64 +17 +17 1011.2 976.9
02 14.06 З 1-2
{3}
20 км н/о +15.2 +9.6 69 +16 +16 1011.0 976.5
04 14.06 З 2-2
{3}
20 км н/о +14.1 +9.6 74 +14 +14 1010.9 976.3
05 14.06 З 1-2
{3}
20 км н/о +13.6 +9.4 76 +14 +14 1010.9 976.3
06 14.06 З 1 20 км н/о +13.9 +9.6 75 +14 +14 1010.9 976.3 +13.6 +26.3
07 14.06 З 1-2
{2}
20 км н/о +14.9 +9.7 71 +15 +15 1011.1 976.6
08 14.06 СЗ 1-2
{2}
20 км н/о +16.5 +9.9 65 +17 +17 1011.0 976.7
10 14.06 СЗ 1-2
{2}
20 км слаб. ливневой дождь н/о +17.2 +10.3 64 +18 +18 1010.4 976.2
11 14.06 В 1-2
{2}
20 км в посл. час дождь н/о +19.8 +8.5 48 +22 +22 комфорт 1010.2 976.3
12 14.06 В 2-3
{3}
20 км н/о +22.2 +9.0 43 +24 +24 комфорт 1009.5 975.9
13 14.06 В 3-4
{5}
20 км н/о +23.6 +8.1 37 +24 +24 комфорт 1008.5 975.1
14 14.06 В 2-4
{4}
20 км н/о +24.9 +8.0 34 +25 +25 комфорт 1007.9 974.6
16 14.06 В 2-3
{3}
20 км н/о +27.9 +8.3 29 +28 +28 жарко 1006.4 973.5
17 14.06 В 1-2
{3}
20 км н/о +28.7 +7.3 26 +28 +28 жарко 1005.9 973.1
18 14.06 Ю 2-2
{4}
20 км н/о +28.9 +2.3 18 +27 +27 жарко 1006.2 973.4 +29.3
19 14.06 СЗ 3-4
{5}
20 км н/о +26.4 +10.5 37 +27 +27 жарко 1007.1 974.0
20 14.06 СЗ 4-5
{5}
20 км н/о +19.1 +11.4 61 +20 +20 1009.5 975.6
22 14.06 СЗ 3-5
{6}
20 км н/о +15.7 +10.6 72 +15 +15 1013.0 978.5
23 14.06 СЗ 4-6
{7}
20 км н/о +15.2 +10.4 73 +14 +14 1014.2 979.6
00 15.06 СЗ 3-5
{5}
20 км н/о +15.3 +10.3 72 +15 +15 1015.1 980.5
01 15.06 СЗ 4-5
{6}
20 км н/о +15.1 +9.7 70 +14 +14 1015.4 980.8
02 15.06 З 3-4
{5}
20 км н/о +14.4 +9.4 72 +13 +13 1015.9 981.2
04 15.06 СЗ 3-4
{6}
20 км н/о +13.0 +8.7 75 +12 +12 1017.0 982.1
05 15.06 СЗ 3-4
{4}
20 км н/о +12.8 +8.9 77 +12 +12 1017.6 982.6
06 15.06 СЗ 3 20 км н/о +14.4 +9.0 70 +14 +14 1017.8 983.0 +12.7 +29.0
07 15.06 СЗ 3-4
{5}
20 км н/о +15.6 +8.8 64 +15 +15 1018.2 983.5
08 15.06 З 3-4
{5}
20 км н/о +16.8 +8.8 59 +17 +17 1018.3 983.8
10 15.06 З 3-4
{5}
20 км н/о +19.9 +7.3 44 +21 +21 комфорт 1018.3 984.1
11 15.06 СЗ 3-5
{5}
20 км н/о +21.7 +7.1 39 +23 +23 комфорт 1017.9 983.9
12 15.06 СЗ 3-5
{6}
20 км н/о +22.7 +5.6 33 +23 +23 комфорт 1017.3 983.5
13 15.06 СЗ 3-5
{6}
20 км н/о +24.2 +5.5 30 +24 +24 комфорт 1016.7 983.0
14 15.06 СЗ 3-5
{6}
20 км н/о +24.3 +5.1 29 +24 +24 комфорт 1016.5 982.9
16 15.06 СЗ 3-6
{6}
20 км н/о +24.8 +5.0 28 +24 +24 комфорт 1016.4 982.8
17 15.06 С 4-5
{5}
20 км н/о +24.2 +5.5 30 +24 +24 комфорт 1016.6 982.9
18 15.06 С 3-4
{5}
20 км н/о +23.1 +5.9 33 +24 +24 комфорт 1017.1 983.3 +24.8
19 15.06 С 4-5
{5}
20 км н/о +21.5 +5.5 35 +22 +22 комфорт 1017.9 983.9
20 15.06 С 3-4
{5}
20 км н/о +19.5 +6.2 42 +21 +21 комфорт 1018.6 984.4
22 15.06 З 2-3
{3}
20 км н/о +15.9 +7.4 57 +16 +16 1020.5 985.8
23 15.06 З 3-3
{3}
20 км н/о +15.3 +7.8 61 +15 +15 1020.8 986.0
00 16.06 З 3-4
{4}
20 км н/о +14.8 +7.8 63 +14 +14 1020.9 986.0
01 16.06 СЗ 2-2
{4}
20 км н/о +13.4 +7.6 68 +13 +13 1020.9 985.9
02 16.06 СЗ 2-2
{2}
20 км н/о +12.7 +7.4 70 +12 +12 1020.7 985.6
04 16.06 З 1-1
{1}
20 км н/о +11.2 +7.0 75 +12 +12 1020.5 985.2
05 16.06 Ю 1-1
{1}
20 км н/о +10.7 +6.7 76 +11 +11 1020.8 985.4
06 16.06 штиль 0 20 км н/о +13.4 +7.8 69 +13 +13 1020.8 985.8 +10.7 +23.0
07 16.06 штиль 0-1
{1}
20 км н/о +14.9 +8.1 64 +15 +15 1020.9 986.1
08 16.06 ЮВ 1-1
{2}
20 км н/о +17.5 +8.4 55 +19 +19 1020.6 986.1
10 16.06 ЮВ 1-2
{2}
20 км н/о +22.0 +6.7 37 +23 +23 комфорт 1019.3 985.3
11 16.06 ЮВ 2-3
{3}
20 км н/о +24.4 +7.1 33 +25 +25 комфорт 1018.3 984.6
12 16.06 ЮВ 2-3
{3}
20 км н/о +26.1 +5.1 26 +25 +25 комфорт 1017.3 983.8
13 16.06 СВ 2-3
{3}
20 км н/о +27.3 +5.6 25 +26 +26 жарко 1016.1 982.8
14 16.06 СВ 2-3
{4}
20 км н/о +28.4 +4.6 22 +27 +27 жарко 1015.2 982.0
16 16.06 В 2-4
{4}
20 км н/о +29.6 +1.1 16 +27 +27 жарко 1013.3 980.3
17 16.06 В 3-3
{4}
20 км н/о +29.6 +1.1 16 +27 +27 жарко 1013.0 980.0
18 16.06 В 1-2
{3}
20 км н/о +29.4 0.0 15 +27 +27 жарко 1013.0 980.0 +30.0
19 16.06 В 1-1
{2}
20 км н/о +28.8 +2.1 18 +27 +27 жарко 1013.1 980.0
20 16.06 Ю 1-1
{1}
20 км н/о +26.2 +2.9 22 +25 +25 комфорт 1013.6 980.2
22 16.06 В 1-2
{2}
20 км н/о +22.6 +4.6 31 +23 +23 комфорт 1015.0 981.2
23 16.06 Ю 1-1
{1}
20 км н/о +20.8 +5.9 38 +23 +23 комфорт 1015.4 981.4

 

Местоположение метеостанции Барденас-Реалес (Испания): широта 42.20 долгота -1.47 высота над уровнем моря 295 м.

В архиве по умолчанию представлена погода в Барденас-Реалесе за последнюю неделю. Архивные данные за месяц целиком и за предыдущие месяцы, начиная с января 2011 года, Вы можете получить, выбрав интересующий диапазон дат из раскрывающегося списка и нажав кнопку "Ввод!".


*Определитесь, кто Вы:
робот инопланетянин человек

Внимание! Время в таблицах - всемирное. Для получения местного времени необходимо прибавить поправку, которая равна 1 ч.

Смотрите также архив погоды в соседних городах и на ближайших метеорологических станциях:

Погода в Сос-дель-Рей-Католико (Испания) (39 км)
Погода в Илундайне (Испания) (65 км)
Погода в Памплоне (Испания) (65 км)
Погода в Сарагосе (Испания) (71 км)
Погода в Логроньо (Испания) (76 км)
Погода в Сарагоса - Вальдеспарт (Испания) (78 км)
Погода в Хаке (Испания) (87 км)
Погода в Арагес-дель-Пуэрто (Испания) (87 км)
Погода в Сории (Испания) (96 км)
Погода в Калатаюде (Испания) (98 км)

Пояснения к столбцам:

Ветер - указаны скорость ветра в м/с - средняя за 10 мин, порывы в срок и между сроками (в фигурных скобках) и направление, откуда дует ветер: С - северный, СВ - северо-восточный, В - восточный, ЮВ - юго-восточный, Ю - южный, ЮЗ - юго-западный, З - западный, СЗ - северо-западный.
Видимость - горизонтальная дальность видимости в метрах или километрах. При видимости от 1 до 10 км при отсутствии осадков обычно наблюдается дымка, при ухудшении видимости до 1 км и менее - туман. В сухую погоду видимость может ухудшаться дымом, пылью или мглою.
Явления - указаны атмосферные явления, наблюдавшиеся в срок или в последний час перед сроком; фигурными скобками обозначены явления, наблюдавшиеся между сроками (за 1-3 часа до срока); квадратными скобками обозначены град или гололедные отложения с указанием их диаметра в мм.
Облачность - указаны через наклонную черту общая и нижняя облачность в баллах и высота нижней границы облаков в метрах; квадратными скобками обозначены формы облаков: Ci - перистые, Cs - перисто-слоистые, Cc - перисто-кучевые, Ac - высококучевые, As - высокослоистые, Sc - слоисто-кучевые, Ns - слоисто-дождевые, Cu - кучевые, Cb - кучево-дождевые. Подробнее классификацию облаков см. в Атласе облаков (PDF).
T - Температура воздуха - температура, измеренная на высоте 2 м над землей.
Td - Температура точки росы - температура, при понижении до которой содержащийся в воздухе водяной пар достигнет насыщения.
f - Относительная влажность воздуха - влажноcть воздуха, измеренная на высоте 2 м над землей.
Te - Эффективная температура - температура, которую ощущает одетый по сезону человек в тени. Характеристика душности погоды. При расчете учитывается влияние влажности воздуха и скорости ветра на теплоощущения человека.
Tes - Эффективная температура на солнце - температура, которую ощущает человек, с поправкой на солнечный нагрев. Характеристика знойности погоды. Зависит от высоты солнца над горизонтом, облачности и скорости ветра. Ночью, в пасмурную погоду, а также при ветре 12 м/с и более поправка равна нулю.
P - Атмосферное давление - приведенное к уровню моря атмосферное давление.
Po - Атмосферное давление - измеренное на уровне метеостанции атмосферное давление.
Tmin - Минимальная температура - минимум температуры воздуха на высоте 2 м над землей.
Tmax - Максимальная температура - максимум температуры воздуха на высоте 2 м над землей.
R - Количество осадков - Количество выпавших осадков за период времени, мм. При наведении курсора мыши на число - период времени, за который выпало указанное количество осадков.
R24 - Количество осадков - Количество выпавших осадков за 24 часа, мм.
S - Снежный покров - Высота снежного покрова, см. При наведении курсора мыши на число - состояние снежного покрова и степень покрытия местности в баллах.